Theta_e
293 293 294 293 293 293 292 292 292 292 291 291 291 291 291 292 292 292 292 292 292 292 292 292 292 292 292 292 292 292 293 293 294 294 294 294 294 294 294 294 294 294 294 294 293 293 293 293 292 292 292 292 291 291 291 290 290 290 289 289 289 289
293 293 293 293 293 292 292 292 292 292 291 290 290 290 290 290 290 291 291 291 291 291 291 292 292 292 292 292 292 292 292 292 293 293 293 294 294 294 294 294 294 294 294 294 293 293 293 292 292 292 291 291 291 291 291 291 290 290 289 289 289 289
292 292 292 292 292 292 292 292 292 291 291 290 290 289 289 289 289 289 290 290 290 290 290 290 291 291 292 292 291 291 291 292 292 292 292 292 293 293 293 293 293 293 293 293 293 293 293 292 292 292 291 291 291 290 290 290 290 290 289 289 289 288
291 292 292 292 292 292 291 291 291 291 290 290 289 289 289 289 289 289 289 289 289 290 289 289 289 289 290 291 291 291 291 291 291 291 291 291 292 292 292 292 293 293 293 293 293 293 293 292 292 292 291 291 290 290 290 290 290 290 289 289 289 288
291 291 292 292 292 292 292 291 291 291 290 289 289 289 289 289 288 289 289 289 289 289 289 289 289 289 289 289 290 290 291 291 291 291 291 291 291 291 291 292 292 292 292 292 292 292 292 292 292 291 291 291 290 290 290 290 290 289 289 289 289 288
291 291 292 292 292 292 292 291 291 290 290 290 289 289 288 288 288 288 288 288 289 289 289 289 288 288 288 288 289 289 290 290 290 290 290 290 290 291 291 291 291 291 291 291 292 292 292 292 292 291 291 291 291 290 290 290 290 289 289 289 289 288
291 291 291 291 292 292 292 291 291 290 290 290 289 288 288 288 288 288 288 288 288 288 288 288 288 288 288 288 288 288 288 289 289 290 290 290 290 290 290 290 290 290 290 291 291 291 291 291 291 291 291 291 291 291 290 290 289 289 289 289 288 288
291 291 291 291 291 291 292 291 290 290 290 289 289 288 288 288 288 288 288 288 288 288 287 287 287 287 287 287 287 287 287 287 288 288 289 289 289 289 289 289 290 290 290 290 290 290 291 291 291 291 291 291 291 290 290 289 289 289 289 288 288 288
290 290 291 290 290 291 291 291 290 289 289 288 288 287 287 288 288 288 288 288 288 288 288 286 285 285 285 286 286 286 286 287 287 287 287 288 289 289 289 289 289 289 289 289 289 290 290 290 290 290 290 290 290 290 289 289 289 288 288 288 288 288
290 290 290 290 290 290 291 291 290 289 288 288 287 286 286 287 287 287 287 287 288 288 288 287 286 285 285 285 285 285 285 285 285 286 286 287 288 289 289 289 289 289 289 289 289 289 289 289 290 290 289 289 289 289 289 289 288 288 288 288 287 287
290 290 290 290 290 290 290 290 290 289 288 288 287 285 285 285 286 287 287 287 287 287 287 288 287 286 285 285 285 285 285 284 284 285 285 286 286 287 288 288 288 288 288 288 288 288 288 289 289 289 289 289 289 288 288 288 288 288 287 287 287 287
290 290 290 290 289 289 290 290 290 289 288 287 286 285 285 284 285 286 286 286 286 286 287 287 287 286 286 286 286 285 284 284 284 284 284 285 285 286 286 287 288 288 288 288 288 288 288 288 288 288 288 288 288 288 288 288 288 287 287 287 287 287
290 290 290 289 289 289 289 289 289 288 287 287 286 285 284 284 284 285 285 285 285 285 286 286 286 285 286 286 286 286 285 284 283 283 283 284 284 284 285 285 286 287 288 288 288 288 288 288 288 288 288 288 288 288 288 288 288 287 287 287 286 286
289 290 289 289 289 289 289 289 289 288 287 287 286 284 284 284 284 285 284 284 284 284 285 284 284 284 284 286 286 286 285 283 283 282 283 283 283 283 284 284 285 286 287 287 288 288 288 288 288 288 288 288 288 288 288 288 287 287 287 287 286 286
289 289 289 289 288 288 288 288 288 287 287 286 285 284 283 283 283 284 283 283 283 283 284 283 283 282 282 284 286 285 284 283 283 283 282 282 282 282 283 283 284 284 285 286 287 287 287 287 287 288 288 287 287 287 288 288 288 287 287 287 287 286
289 289 289 289 288 288 288 288 288 287 286 285 284 284 283 282 282 283 283 282 282 283 283 282 282 280 280 282 284 284 283 283 283 282 282 282 282 282 283 283 283 283 284 285 286 286 287 287 287 287 287 287 287 287 287 288 288 287 287 287 287 286
289 289 289 288 288 287 287 287 287 286 285 284 284 283 282 282 282 282 282 282 282 282 282 281 280 279 279 281 283 283 282 281 281 280 280 281 282 283 283 284 283 283 283 283 284 285 286 286 287 287 286 287 287 287 287 288 288 287 287 287 287 286
289 288 288 288 287 287 287 286 286 285 284 284 283 282 282 281 281 281 281 281 281 281 281 280 279 278 278 279 281 281 280 279 279 278 278 279 280 282 283 284 283 283 283 283 283 284 285 286 287 287 286 286 286 287 287 288 288 287 287 287 287 286
288 288 287 287 286 286 286 285 285 284 283 283 282 282 281 281 281 281 281 280 280 280 280 279 278 277 277 278 280 280 278 277 277 276 277 278 279 281 282 282 282 282 282 282 283 283 284 285 286 286 286 286 286 287 287 287 287 288 287 287 287 286
288 287 286 286 285 285 284 284 283 282 282 282 282 281 281 280 280 280 280 280 279 279 278 278 277 276 276 277 278 278 276 275 275 274 275 277 278 280 281 282 282 281 281 282 282 283 283 284 285 286 285 285 285 286 286 287 287 287 288 287 287 287
286 286 285 284 284 284 283 282 281 281 281 281 281 280 280 280 279 279 279 279 279 278 277 277 276 275 276 276 276 275 274 274 273 274 274 276 277 278 279 281 281 281 281 281 282 282 282 283 284 285 285 285 285 285 286 286 287 287 288 288 287 287
284 284 284 284 283 283 281 281 280 279 280 280 279 279 279 279 279 278 278 278 277 277 276 275 274 274 274 274 274 273 272 272 272 273 274 274 275 276 277 278 280 280 281 280 281 281 282 282 283 283 285 284 284 285 285 286 286 287 287 288 287 286
283 283 282 282 282 281 280 279 279 278 279 279 278 278 278 278 277 277 277 276 276 275 274 274 273 273 273 272 272 271 271 271 271 272 272 273 274 275 275 276 277 278 280 280 280 281 281 282 282 283 283 284 284 284 285 285 286 287 287 287 287 286
281 281 281 281 280 280 279 278 277 277 277 277 277 277 277 276 276 275 275 274 274 273 273 272 272 272 271 271 270 270 270 270 270 271 271 271 272 273 274 275 276 278 279 280 281 281 281 281 282 282 283 283 283 284 284 285 286 286 287 287 287 286
280 280 279 279 279 278 278 277 276 276 276 276 276 276 275 275 274 274 273 273 272 272 272 271 271 270 270 270 269 269 269 269 269 270 270 270 271 272 273 274 276 278 279 280 281 281 281 281 281 282 282 282 283 283 284 284 285 286 286 287 286 286
278 278 277 277 277 276 276 275 275 274 274 274 274 274 273 273 272 272 271 271 271 271 270 270 270 269 269 268 268 268 268 268 268 269 269 270 271 272 273 274 276 278 280 281 281 282 282 281 281 281 282 282 282 282 283 284 285 285 286 286 286 285
276 275 275 275 274 274 273 273 273 272 272 272 272 271 271 271 270 270 269 269 269 269 269 268 268 268 268 267 267 267 267 267 268 268 268 269 270 271 272 274 276 278 279 281 281 282 282 282 282 281 281 282 282 282 282 283 284 284 285 286 286 286
273 273 273 272 272 272 271 271 270 270 270 269 269 268 268 268 267 267 267 267 267 267 267 267 267 266 266 266 266 266 266 267 267 267 268 268 269 271 272 274 275 277 279 280 281 281 282 282 282 281 281 281 281 281 281 282 283 284 284 285 286 286
271 271 270 270 269 269 268 268 267 267 266 266 266 265 265 265 265 264 264 265 265 265 265 265 265 265 265 265 265 265 266 266 266 267 267 268 269 270 271 273 275 276 278 279 280 281 281 282 282 282 281 281 281 280 280 281 282 283 283 284 285 286
269 268 268 267 267 266 266 265 265 264 264 264 263 263 263 262 262 263 263 263 263 263 263 263 264 264 264 264 264 264 265 265 265 266 266 267 268 269 271 272 273 275 276 278 280 280 281 281 282 282 281 281 281 280 280 280 281 282 283 283 284 285
266 266 265 265 264 264 264 263 263 263 262 262 262 262 261 261 262 262 262 262 262 262 262 263 263 263 263 263 263 264 264 264 264 265 265 266 267 268 269 271 272 273 274 276 278 279 280 281 281 281 281 281 281 280 280 280 280 281 281 282 284 284
264 264 263 263 263 263 262 262 262 262 261 261 261 261 261 261 261 261 261 262 262 262 262 262 262 262 263 263 263 263 263 263 264 265 265 266 267 268 269 270 271 272 274 275 276 278 279 280 281 281 281 281 281 281 281 280 281 281 281 282 283 284
263 262 262 262 262 262 262 261 261 261 261 261 261 261 261 261 261 261 261 261 261 262 262 262 262 262 262 262 263 263 263 263 263 264 265 267 268 269 270 271 272 273 274 275 276 277 278 279 280 280 281 282 282 282 282 281 281 282 282 282 283 283
262 262 262 262 261 261 261 261 261 261 261 261 261 261 261 261 261 261 261 261 261 261 261 262 262 262 262 262 262 263 263 263 263 264 265 266 267 268 269 269 270 271 272 273 274 275 276 277 278 280 281 282 282 283 282 282 282 282 282 283 283 282
261 261 261 261 261 261 261 261 261 261 261 260 260 260 260 260 260 260 261 261 261 261 261 261 262 262 262 262 262 263 263 263 263 264 264 265 265 265 266 267 267 268 270 271 272 273 274 275 277 278 280 282 283 283 283 282 283 283 283 283 283 282
261 261 261 260 260 260 261 261 261 260 260 260 260 260 260 260 260 260 260 260 261 261 261 261 261 262 262 262 262 262 263 263 263 263 263 263 264 264 265 265 266 268 269 271 273 274 276 276 277 278 281 282 283 284 283 283 283 283 283 283 283 282
260 260 260 260 261 261 260 260 260 260 260 260 259 259 259 259 259 260 260 260 260 261 261 261 261 261 262 262 262 262 262 262 263 263 263 263 264 264 264 265 266 267 268 270 272 274 277 278 279 280 281 283 283 284 284 283 283 283 283 283 284 283
260 260 261 261 261 260 260 260 260 260 260 259 259 259 259 259 259 260 260 260 260 260 261 261 261 261 261 261 262 262 262 262 262 263 263 263 263 264 264 265 265 266 267 269 271 273 276 279 280 281 281 283 283 284 284 283 283 283 283 283 283 283
Wind_Speed
12 13 14 15 16 17 18 18 19 20 23 26 27 25 24 24 25 25 26 29 32 33 33 32 30 27 24 21 21 20 21 23 25 26 27 28 29 29 30 30 31 31 32 34 36 38 40 42 43 44 45 45 45 45 46 46 45 45 46 47 48 48
11 12 13 14 15 16 16 17 18 21 25 32 34 32 31 31 30 29 29 29 29 31 33 33 33 31 28 25 22 20 19 21 23 25 27 28 29 29 30 30 30 31 32 34 35 36 38 40 41 42 43 44 45 46 47 48 47 47 46 46 46 47
9 11 11 12 12 14 15 16 19 21 24 28 31 32 34 35 36 35 33 31 30 30 31 31 31 32 31 29 25 21 19 20 21 23 24 25 27 28 29 30 31 32 33 33 34 36 37 38 39 41 42 42 43 44 46 47 47 48 48 46 46 48
9 10 10 11 12 14 17 18 20 22 23 25 27 29 30 31 32 33 32 32 31 30 29 29 30 31 31 30 27 23 20 19 19 20 21 22 24 26 28 29 30 32 33 33 35 35 36 37 38 40 41 43 44 45 45 46 46 48 48 48 48 48
9 10 11 12 13 15 16 17 18 18 19 21 23 25 26 27 28 28 27 28 28 27 29 30 31 31 30 29 27 26 24 23 20 19 19 20 21 22 25 27 29 30 32 33 35 35 36 38 38 40 42 44 46 46 47 48 48 49 49 50 51 50
10 11 12 13 13 14 14 14 15 14 14 16 17 19 21 24 25 25 25 25 24 23 25 28 29 30 31 29 28 28 28 27 25 22 19 18 19 20 22 25 27 28 30 32 34 36 37 39 40 41 43 45 47 47 48 48 49 50 51 52 52 51
10 11 11 11 12 12 12 12 12 12 12 13 13 14 16 18 20 21 22 23 24 23 24 26 25 27 30 31 30 29 29 28 27 27 24 20 18 19 20 22 25 27 28 30 33 35 37 40 41 42 44 46 47 48 49 49 49 50 51 52 53 52
10 12 12 12 12 12 12 12 12 12 12 12 13 13 13 14 15 16 16 18 19 20 23 26 26 27 29 30 29 29 30 30 29 29 27 23 20 19 19 20 22 25 27 29 32 34 37 39 41 43 45 46 47 48 49 49 48 49 50 52 53 53
7 9 11 12 13 13 13 12 13 13 13 13 13 14 14 14 14 14 14 14 14 14 17 21 25 28 29 28 28 29 29 30 30 30 30 28 26 24 21 20 20 23 26 28 31 34 36 38 40 42 44 45 45 47 48 49 48 47 47 50 52 53
4 6 8 9 11 12 12 13 13 13 13 13 14 17 16 15 14 13 13 13 12 12 13 15 18 24 27 28 29 29 30 30 30 30 30 30 29 27 25 23 21 22 23 25 29 32 35 38 40 41 41 42 43 44 47 48 47 46 47 48 50 51
5 6 7 8 9 10 11 12 12 13 14 14 17 22 23 21 18 14 13 13 12 13 13 13 13 17 22 26 27 29 31 32 33 32 32 30 29 28 27 26 25 23 22 23 25 28 31 35 38 39 39 39 41 42 43 43 43 46 47 46 47 49
6 7 8 8 9 10 10 11 11 13 14 14 18 23 26 26 24 19 16 15 14 14 14 14 13 13 16 19 23 26 29 31 33 34 34 34 32 31 30 30 29 27 24 23 23 25 28 31 34 35 36 37 38 38 38 38 40 43 42 39 40 44
7 8 9 9 10 10 10 10 11 12 13 13 15 18 22 23 22 20 19 18 18 17 16 16 16 16 16 15 17 21 26 28 30 31 33 34 35 35 34 34 32 30 27 25 23 23 25 28 31 32 34 37 38 38 37 37 38 40 40 37 38 41
8 9 10 11 12 12 11 11 11 12 13 13 14 18 21 20 18 18 20 21 21 20 19 19 20 22 22 19 18 20 23 26 28 30 31 34 36 36 36 35 34 32 30 28 26 25 25 27 29 30 32 35 37 38 39 38 37 38 40 41 42 43
9 10 12 13 13 14 14 12 12 13 13 15 18 21 23 22 19 18 20 22 22 20 19 20 22 26 27 24 21 22 23 24 26 27 28 32 35 36 37 37 35 34 33 30 29 29 29 30 29 28 30 33 35 37 38 38 38 37 39 42 43 44
11 12 13 14 14 15 15 13 13 14 14 15 19 22 23 23 22 20 20 21 21 19 18 19 22 26 29 26 22 22 24 24 23 24 26 28 30 32 34 36 36 36 35 32 31 31 32 33 30 28 29 31 33 35 37 38 39 39 40 42 44 44
12 13 13 14 14 14 14 14 14 15 15 15 18 21 22 23 24 23 21 21 21 19 17 18 21 25 29 27 22 23 26 26 25 26 27 25 25 26 27 30 34 37 37 35 33 33 34 35 34 30 30 30 31 33 34 36 38 40 41 42 44 45
14 15 15 15 14 14 15 15 15 16 19 21 21 23 24 24 24 23 21 21 22 20 18 19 22 26 29 27 22 24 29 30 30 32 30 25 25 24 23 26 31 34 37 37 35 34 35 38 37 33 30 30 29 30 31 33 35 37 39 40 42 44
15 17 17 16 16 17 15 15 16 17 21 25 25 26 28 25 22 21 21 22 22 21 21 22 25 29 31 26 21 25 31 33 35 38 33 26 26 25 24 27 31 34 37 38 36 34 36 39 39 35 32 31 29 28 29 32 33 34 37 40 42 42
15 17 17 16 19 21 16 15 17 18 20 23 23 24 26 24 22 20 21 22 21 21 23 27 29 31 30 25 23 27 33 36 39 40 34 25 24 26 26 26 29 35 39 38 35 35 36 39 40 37 34 33 30 28 29 31 30 31 34 38 41 42
15 17 18 18 20 21 19 21 23 21 21 22 21 21 22 22 22 22 22 22 21 20 23 28 31 32 29 26 28 32 36 37 38 38 32 25 24 26 27 25 26 31 36 38 37 36 36 39 42 39 35 34 31 28 29 29 28 30 31 32 35 38
15 16 18 18 18 21 24 27 27 25 24 23 22 21 21 22 22 22 22 23 22 22 26 30 32 31 29 29 33 35 35 34 32 31 29 28 27 27 27 27 28 31 36 40 40 39 37 39 42 42 38 36 33 29 28 29 28 30 30 29 30 33
14 16 18 20 20 23 26 27 26 25 24 23 22 24 24 23 23 22 23 24 25 28 32 33 32 32 32 33 34 35 35 32 29 27 28 28 28 28 29 31 32 32 34 37 39 41 40 40 42 43 40 38 35 31 29 30 32 32 31 29 31 34
17 19 21 23 21 22 25 26 25 25 23 22 24 26 26 25 25 26 27 29 31 34 35 35 33 33 35 36 34 33 34 33 29 27 28 28 28 30 33 35 34 31 30 32 34 38 41 42 42 42 41 39 37 34 31 32 35 35 32 30 31 33
19 20 22 23 22 20 22 24 25 25 24 24 27 28 27 27 29 31 33 35 36 36 36 35 35 35 36 36 34 31 32 33 30 28 28 27 27 28 30 32 31 29 28 29 30 32 37 42 42 41 40 40 39 37 34 35 37 36 33 32 31 31
19 21 24 25 23 20 21 23 25 26 26 27 29 29 27 29 32 34 36 38 38 38 38 37 37 37 36 36 32 28 29 31 30 28 28 27 26 27 27 28 28 25 24 24 25 26 29 36 40 40 39 39 39 38 35 35 36 36 35 35 34 32
20 23 26 27 25 22 22 23 23 25 28 29 29 28 28 31 34 35 37 39 38 38 39 40 39 38 37 35 32 30 31 32 30 28 27 26 26 27 26 26 26 24 23 22 22 24 24 27 32 37 38 37 38 37 35 34 35 35 35 37 37 34
21 22 25 29 27 23 23 24 23 24 29 31 30 30 31 34 36 36 37 38 37 37 38 39 39 37 34 33 32 31 32 32 30 29 28 26 26 27 26 26 25 24 23 22 22 24 25 23 24 30 36 37 37 37 35 33 33 34 35 36 37 36
20 22 25 28 28 25 24 26 25 25 28 30 30 31 33 35 35 35 36 36 35 35 35 34 34 34 33 32 31 30 30 29 28 28 27 26 25 25 26 26 25 24 23 23 23 24 24 22 20 23 30 34 33 33 33 32 31 32 32 33 34 34
20 22 24 27 29 27 27 27 28 28 28 29 30 32 34 35 34 34 35 36 34 34 33 31 31 32 31 30 29 28 28 27 26 27 28 28 27 26 26 26 26 25 25 24 24 23 22 22 21 22 27 31 31 29 29 28 27 26 26 28 30 30
20 23 25 27 27 28 28 28 28 29 30 31 33 34 34 34 34 34 35 34 33 31 30 29 29 29 28 29 29 29 29 29 28 30 32 33 32 31 31 30 29 29 28 27 27 25 22 22 23 22 24 27 29 30 29 28 28 27 27 28 28 26
20 23 26 27 27 27 28 29 31 33 35 36 36 34 33 33 34 34 33 32 31 30 29 29 29 28 29 30 29 30 31 31 31 32 35 37 37 36 37 37 37 36 34 31 31 30 27 28 29 27 24 23 25 28 31 31 31 31 30 28 27 26
21 23 26 27 27 27 29 32 36 40 42 40 36 35 34 33 32 32 31 30 30 30 30 31 31 30 30 30 30 30 31 31 31 33 35 36 36 34 34 36 37 37 36 34 34 33 33 36 38 36 34 31 29 29 30 29 30 30 29 27 26 25
22 23 26 28 28 30 34 38 41 43 41 38 36 35 34 32 31 32 31 31 31 32 32 32 31 31 30 30 29 29 29 29 29 28 27 28 30 32 35 37 39 41 41 40 39 38 37 39 40 39 38 35 33 32 31 28 28 29 28 29 27 22
23 25 28 31 34 37 39 40 40 39 37 36 36 35 33 31 31 31 31 31 31 31 31 31 30 30 30 29 29 28 28 28 27 25 25 27 30 33 36 38 41 44 45 44 45 45 45 46 45 42 39 36 34 34 31 29 29 29 28 30 28 22
27 30 33 36 38 39 37 37 37 36 36 36 35 33 32 31 30 30 31 31 31 31 31 30 30 30 30 29 29 29 29 29 29 28 28 27 24 23 26 30 33 35 37 38 40 41 42 44 45 43 41 37 35 34 31 29 28 28 28 30 29 22
31 34 36 36 36 34 33 35 36 36 35 34 33 33 32 32 31 30 30 31 31 30 29 29 29 29 29 28 28 28 28 28 29 29 28 26 22 19 21 25 26 28 32 35 36 36 35 35 35 36 36 35 34 33 31 27 24 22 24 28 29 23
33 35 34 32 33 31 31 34 36 35 33 33 33 33 33 30 28 28 28 29 29 28 28 28 28 28 28 28 28 28 28 28 28 27 27 26 25 23 22 24 26 29 34 36 36 34 32 29 28 28 29 29 31 32 29 24 19 18 20 24 26 23
Wind_Direction
28 27 28 28 28 26 25 23 23 25 27 28 29 29 28 26 25 25 25 26 26 25 24 22 19 13 2 348 334 318 305 296 291 285 280 277 273 268 264 260 254 250 247 243 240 239 236 234 233 231 229 228 227 227 228 229 229 228 229 229 228 228
27 27 28 27 27 25 22 20 21 23 25 26 27 26 24 24 23 23 22 22 22 22 23 23 22 20 15 7 355 337 321 310 302 296 291 285 280 274 268 263 257 252 250 247 243 241 239 236 234 232 230 229 228 227 228 229 229 228 229 229 229 228
26 27 27 27 27 26 24 22 22 23 22 22 23 22 21 20 19 19 19 19 19 19 20 20 19 19 18 16 9 354 338 326 315 308 302 292 285 279 273 266 261 257 253 250 247 244 241 238 235 233 231 230 229 229 229 229 228 228 228 228 229 229
22 23 24 24 24 23 22 22 22 22 21 19 18 19 18 16 15 15 14 14 14 15 15 15 16 17 16 15 12 4 352 341 327 318 310 300 291 285 278 271 265 261 258 253 250 247 243 241 238 235 233 231 231 230 230 230 229 228 227 226 227 228
14 15 17 19 21 21 20 20 20 19 17 16 16 15 14 13 13 11 8 7 7 7 8 10 11 13 13 12 10 7 3 357 346 333 318 305 298 290 283 277 270 265 261 257 253 250 247 244 241 238 236 235 233 232 232 231 230 229 228 227 227 227
10 11 11 13 14 15 15 16 15 13 13 15 14 12 11 11 11 10 8 5 3 1 2 3 5 6 7 7 6 5 5 3 360 352 338 318 304 295 288 284 279 270 264 260 256 252 249 247 244 242 241 239 237 235 234 234 233 231 230 229 229 227
7 6 7 8 8 9 9 8 7 7 7 7 7 5 4 5 6 6 6 5 4 2 1 359 359 359 0 1 0 1 1 0 0 359 354 339 318 304 294 287 284 277 269 263 259 255 252 250 248 246 244 243 241 239 237 237 235 234 233 231 231 230
358 359 359 358 359 1 0 0 0 360 359 359 359 357 354 354 355 354 355 357 359 0 0 360 359 356 356 356 355 355 356 356 356 355 355 350 339 326 309 293 286 282 276 269 265 261 257 255 252 250 247 245 244 242 240 238 238 237 235 234 233 232
350 352 349 349 350 350 351 352 352 351 351 350 351 351 349 346 345 343 341 342 344 347 352 356 358 357 356 353 351 351 352 352 352 350 350 350 348 343 332 314 298 288 283 276 270 266 263 260 257 253 250 246 244 243 241 240 239 239 238 237 236 235
336 338 337 339 340 338 340 340 341 343 342 340 343 346 346 342 338 335 333 333 333 333 336 341 348 354 354 352 350 350 350 349 349 348 347 346 346 345 341 333 320 303 291 282 274 269 266 263 260 255 251 247 244 243 242 241 240 240 240 239 238 237
324 324 322 324 325 327 330 329 331 334 333 332 336 340 343 343 338 331 327 327 327 327 328 328 332 342 348 348 348 347 347 347 347 346 345 344 342 341 339 337 332 321 305 291 280 273 267 262 259 255 252 248 246 245 244 243 241 241 241 241 239 238
308 308 308 311 314 316 317 318 322 324 324 326 329 334 339 340 337 332 328 327 326 326 326 325 324 327 333 339 341 342 343 344 344 344 343 342 340 338 337 335 333 329 318 304 289 278 271 266 261 257 254 251 247 246 245 244 242 241 240 239 238 237
301 303 305 307 308 309 308 309 311 313 315 317 320 325 330 332 331 326 324 324 325 325 325 325 325 325 324 325 329 334 337 339 339 339 339 338 337 335 334 333 332 329 324 314 299 283 275 272 269 265 259 253 249 247 245 244 244 243 240 238 237 237
301 304 305 305 306 306 305 306 307 307 308 309 311 316 321 323 321 317 318 321 323 323 324 325 327 328 328 325 322 326 330 332 334 335 335 334 334 332 330 329 328 326 323 317 308 297 286 279 278 275 267 258 253 250 246 244 244 243 240 239 239 238
297 297 299 300 301 303 303 302 299 297 299 302 305 309 313 316 315 312 312 315 317 318 319 321 324 326 328 326 321 322 326 328 330 331 330 329 329 328 325 324 323 323 321 316 309 303 297 291 287 282 274 266 258 254 249 246 245 242 240 240 239 239
291 289 289 290 292 296 298 294 291 290 288 291 296 301 305 308 309 308 307 308 310 310 311 315 318 321 325 324 318 318 323 324 324 324 324 324 323 321 319 319 318 318 317 314 308 304 300 296 292 286 279 272 265 259 253 248 245 243 242 241 240 239
293 290 288 288 289 291 291 289 289 290 287 285 289 293 298 301 302 302 301 301 303 303 305 309 312 316 321 320 315 314 318 319 318 318 319 318 314 311 309 310 312 313 313 311 307 303 299 297 295 290 284 277 269 263 255 249 246 244 244 244 242 240
293 291 289 289 288 286 286 288 290 291 292 292 291 292 296 297 296 296 296 296 298 299 300 304 307 311 315 315 310 310 313 315 315 315 316 314 309 304 300 300 304 306 307 306 304 300 296 296 297 293 286 279 270 261 254 249 247 246 245 245 243 242
285 286 287 288 289 289 288 288 290 291 292 292 291 293 295 294 290 289 290 290 292 293 295 299 303 307 310 310 305 304 308 310 310 311 312 311 306 300 296 296 299 302 302 302 300 296 292 294 295 293 288 283 272 260 254 250 248 247 246 245 244 242
282 286 289 291 294 296 297 298 299 297 292 290 290 291 291 289 286 285 285 285 286 287 290 294 298 302 304 302 297 299 303 304 305 307 307 303 298 295 292 292 294 298 299 298 295 293 290 291 293 291 286 283 276 264 256 252 249 248 247 245 245 243
290 292 292 292 295 300 305 308 307 302 293 290 290 286 282 283 285 286 286 286 286 285 287 291 295 297 297 293 292 296 299 300 301 302 301 297 293 292 291 289 288 291 294 294 293 292 289 288 291 290 285 281 276 265 257 253 250 249 247 242 242 242
300 298 297 296 299 305 309 310 309 303 295 293 290 283 281 284 288 289 289 288 287 285 287 290 293 293 291 288 291 295 295 295 295 295 295 294 292 290 288 287 286 286 288 290 290 290 287 284 287 288 284 279 275 265 255 251 249 248 247 244 240 238
303 301 300 300 302 306 310 311 307 299 296 295 290 286 289 294 295 294 291 288 286 287 288 290 290 289 287 287 291 293 292 290 289 287 288 290 290 288 287 286 285 283 282 283 286 287 286 283 283 284 283 279 275 268 256 248 247 248 248 247 243 237
306 302 301 302 304 308 313 314 306 300 297 293 290 293 299 301 300 298 294 290 289 289 289 289 288 286 287 288 290 290 289 288 286 284 285 286 284 283 284 285 283 279 275 275 278 281 283 283 281 280 280 277 273 267 255 246 246 246 246 247 245 238
305 302 303 306 307 311 318 316 309 304 300 295 296 301 303 302 302 300 296 293 291 290 289 288 288 287 287 288 288 286 285 285 285 283 283 283 280 279 280 280 278 275 271 270 271 272 277 281 281 278 276 274 271 265 255 247 246 246 244 245 245 240
308 307 307 309 311 315 319 316 310 306 301 300 304 306 304 304 304 301 296 294 292 290 290 289 289 289 288 287 287 284 281 281 282 281 280 279 277 277 275 274 273 271 267 266 266 266 268 274 278 277 275 273 270 265 257 249 246 246 244 244 245 242
315 313 310 309 313 316 317 315 312 308 304 306 308 308 307 307 305 300 296 294 292 291 291 291 291 290 288 287 286 282 279 279 278 277 276 274 273 272 269 269 269 267 264 263 265 265 263 265 270 274 274 273 270 265 258 250 246 246 244 244 244 242
318 314 311 310 313 318 318 315 313 308 306 307 307 306 305 304 301 298 295 293 291 291 292 292 291 290 287 285 283 279 275 274 273 272 271 269 268 267 266 266 266 264 263 262 261 264 264 259 258 266 272 272 267 263 258 251 246 244 243 245 245 241
319 316 314 311 313 318 316 312 310 308 306 305 305 304 304 301 298 297 294 293 292 293 292 291 290 289 287 285 281 276 272 270 268 267 266 265 264 264 265 266 265 264 264 263 261 262 264 261 251 254 263 264 259 257 257 251 247 245 243 245 248 240
318 315 312 308 310 314 312 309 308 307 306 304 303 303 302 300 298 296 293 293 293 293 292 290 288 287 287 284 280 276 272 269 267 265 263 261 260 261 263 263 263 263 262 263 264 265 266 265 255 246 252 255 249 248 250 246 241 240 236 237 241 235
315 311 307 305 307 309 307 303 302 302 302 301 301 302 300 297 296 295 293 293 292 291 290 289 286 285 284 283 280 276 272 268 265 264 263 260 257 255 257 259 259 260 260 261 263 264 265 265 261 256 258 259 252 247 247 243 240 237 232 231 233 225
311 308 303 301 303 303 300 298 298 300 301 301 301 301 297 294 294 294 292 292 292 291 291 289 287 286 285 283 282 280 277 273 267 264 265 265 262 257 255 255 256 256 258 259 259 259 259 262 264 267 269 266 259 253 249 246 245 242 237 234 230 215
309 303 298 297 299 297 295 296 298 301 304 304 303 301 296 293 293 294 293 293 291 291 291 289 287 286 285 283 282 282 282 281 278 273 269 268 269 268 267 266 265 265 265 266 266 264 264 264 266 268 267 264 262 258 250 244 242 239 235 233 225 207
304 299 295 295 297 297 297 300 301 302 304 305 305 303 299 295 294 293 292 293 291 290 289 287 285 286 285 283 283 282 282 284 285 283 278 273 276 280 282 282 282 281 279 278 276 273 270 267 266 266 264 261 259 256 252 247 242 238 234 230 222 205
298 296 294 295 298 300 300 300 301 303 305 306 306 305 301 296 295 293 292 292 291 290 289 287 286 285 284 282 282 281 280 281 283 284 285 284 281 280 279 277 277 277 276 275 272 269 266 265 264 263 262 260 256 252 249 248 245 242 237 229 221 207
296 296 297 298 300 302 301 300 301 305 308 308 307 305 302 298 296 295 293 292 291 290 289 287 285 283 282 281 281 280 279 279 279 280 284 286 286 283 280 276 274 272 271 270 267 263 260 258 258 258 257 256 252 246 241 239 241 241 237 231 224 213
297 298 299 301 303 303 302 301 304 308 310 309 307 305 303 300 298 295 293 291 290 288 287 285 284 283 282 281 280 279 278 279 279 279 280 281 283 284 283 283 282 279 278 278 277 272 266 258 254 255 255 253 250 244 235 230 233 234 231 229 227 217
299 299 302 304 306 304 301 303 309 313 313 311 310 307 303 300 297 295 294 292 290 287 285 284 283 281 280 279 279 278 278 277 277 278 278 279 281 281 280 282 283 281 282 284 283 279 273 262 253 252 252 251 252 245 230 220 222 224 223 228 229 220